Tracking 34794 objects as of 19-Jul-2026
HD Live streaming from Space Station
objects crossing your sky now

CZ-6A R/B

Track CZ-6A R/B now!
10-day predictions


NORAD ID: 61570
Int'l Code: 2024-185U
Perigee: 655.3 km
Apogee: 798.5 km
Inclination: 89.0 °
Period: 99.2 minutes
Semi major axis: 7097 km
RCS: Unknown
Launch date: October 15, 2024
Source: People's Republic of China (PRC)
Launch site: Taiyaun Space Center, China (TSC)

Note: This is a ROCKET BODY
Your satellite tracking list
Your tracking list is empty




NASA's NSSDC Master Catalog

Two Line Element Set (TLE):
1 61570U 24185U   26199.91228162  .00000186  00000-0  38885-4 0  9998
2 61570  89.0202  51.3883 0100825  87.4830 273.7916 14.51800630 92268
Source of the keplerian elements: AFSPC